Regional Weather Roundup
Issued by NWS

Home | Current Version | Previous Version | Text Only | Print | Product List | Glossary On
Versions: 1 2 3 4 5 6 7 8 9 10 11 12 13 14 15 16 17 18 19 20 21 22 23 24 25 26 27 28 29 30 31 32 33 34 35 36 37 38 39 40 41 42 43 44 45 46 47 48 49 50
000
ASUS43 KOAX 221802
RWRNE

WEATHER ROUNDUP FOR NEBRASKA
NATIONAL WEATHER SERVICE OMAHA NE
100 PM CDT WED MAR 22 2017

NOTES: SATELLITE DATA IS BEING USED TO AUGMENT CLOUD COVER ABOVE
       12000 FEET.
       "FAIR" INDICATES FEW OR NO CLOUDS BELOW 12,000 FEET WITH NO
       SIGNIFICANT WEATHER AND/OR OBSTRUCTIONS TO VISIBILITY.

  * THESE STATIONS DO NOT REPORT WEATHER SUCH AS RAIN...SNOW OR FOG.

NEZ001>004-019>022-054>056-221900-
NEBRASKA PANHANDLE

CITY           SKY/WX    TMP DP  RH WIND       PRES   REMARKS
SCOTTSBLUFF    CLOUDY    55  31  39 SE14      29.96F
6HR MIN TEMP:  35; 6HR MAX TEMP:  56;

ALLIANCE       CLOUDY    50  34  54 S24G33    29.98F
6HR MIN TEMP:  34; 6HR MAX TEMP:  50;

CHADRON        CLOUDY    55  34  45 S14       29.91F
6HR MIN TEMP:  39; 6HR MAX TEMP:  56;

KIMBALL        CLOUDY    53  35  49 S21       30.00F
SIDNEY         CLOUDY    51  34  52 S25       30.01F
6HR MIN TEMP:  33; 6HR MAX TEMP:  51;

$$

NEZ057>060-069>072-079>082-221900-
SOUTHWEST NEBRASKA

CITY           SKY/WX    TMP DP  RH WIND       PRES   REMARKS
NORTH PLATTE   CLOUDY    44  26  49 SE14      30.14F
6HR MIN TEMP:  34; 6HR MAX TEMP:  44;

IMPERIAL       CLOUDY    51  31  46 S21G29    30.09F
6HR MIN TEMP:  33; 6HR MAX TEMP:  51;

LEXINGTON      CLOUDY    44  24  45 SE17G24   30.19F
MCCOOK         CLOUDY    45  26  47 S15       30.16F
6HR MIN TEMP:  35; 6HR MAX TEMP:  45;

OGALLALA       CLOUDY    53  31  43 S22G30    30.07F
$$

NEZ005>010-023>029-035>040-094-221900-
NORTH CENTRAL NEBRASKA

CITY           SKY/WX    TMP DP  RH WIND       PRES   REMARKS
VALENTINE      CLOUDY    45  29  53 S21G30    30.06F
6HR MIN TEMP:  31; 6HR MAX TEMP:  45;

AINSWORTH      CLOUDY    41  32  70 S20G28    30.10F
BROKEN BOW     CLOUDY    45  21  38 S21       30.17F
6HR MIN TEMP:  31; 6HR MAX TEMP:  45;

O`NEILL        CLOUDY    37  28  68 SE20      30.22F WCI  27
ORD            CLOUDY    45  19  35 SE20G30   30.20F
6HR MIN TEMP:  29; 6HR MAX TEMP:  45;

THEDFORD       CLOUDY    45  27  49 S22G29    30.11F
$$

NEZ041-046>049-061>064-073>077-083>087-221900-
SOUTH CENTRAL NEBRASKA

CITY           SKY/WX    TMP DP  RH WIND       PRES   REMARKS
GRAND ISLAND   MOSUNNY   48  20  32 S20G26    30.25F
6HR MIN TEMP:  31; 6HR MAX TEMP:  49;

AURORA         MOSUNNY   49  20  31 SE16      30.26F
HASTINGS       PTSUNNY   48  22  35 S14G21    30.25F
6HR MIN TEMP:  34; 6HR MAX TEMP:  48;

HEBRON         PTSUNNY   50  19  29 SE15      30.27F
HOLDREGE       CLOUDY    44  24  45 SE17      30.21F
KEARNEY *      CLOUDY    45  19  36 SE16      30.24F
YORK           CLOUDY    46  18  31 SE17G23   30.27F
$$

NEZ011>018-030>034-042>045-221900-
NORTHEAST NEBRASKA

CITY           SKY/WX    TMP DP  RH WIND       PRES   REMARKS
NORFOLK        CLOUDY    42  23  46 SE16G24   30.28F
6HR MIN TEMP:  28; 6HR MAX TEMP:  42; 6HR PCP: TRACE;

ALBION         CLOUDY    45  17  32 SE15      30.26F
BLAIR          CLOUDY    44  23  42 E16       30.34F
FREMONT        MOSUNNY   46  22  39 SE16G23   30.33F
TEKAMAH        CLOUDY    44  22  41 SE21      30.36F
6HR MIN TEMP:  31; 6HR MAX TEMP:  45; 6HR PCP: TRACE;

WAYNE          CLOUDY    37  26  66 SE16      30.32F WCI  27
$$

NEZ050>053-065>068-078-088>093-221900-
SOUTHEAST NEBRASKA

CITY           SKY/WX    TMP DP  RH WIND       PRES   REMARKS
LINCOLN        CLOUDY    49  19  30 SE15G22   30.33F
6HR MIN TEMP:  34; 6HR MAX TEMP:  49;

OMAHA EPPLEY   CLOUDY    45  22  40 SE18      30.36F
6HR MIN TEMP:  33; 6HR MAX TEMP:  45; 6HR PCP: TRACE;

BEATRICE       CLOUDY    51  22  32 SE16      30.30F
FALLS CITY     MOSUNNY   50  22  33 E13G18    30.34F
6HR MIN TEMP:  35; 6HR MAX TEMP:  51;

NEBRASKA CITY  SUNNY     47  13  24 SE16      30.33F
PLATTSMOUTH    MOSUNNY   45  22  40 E13       30.35F
$$

NEZ044-045-051>053-067-221900-
OMAHA AREA

CITY           SKY/WX    TMP DP  RH WIND       PRES   REMARKS
OMAHA EPPLEY   CLOUDY    45  22  40 SE18      30.36F
6HR MIN TEMP:  33; 6HR MAX TEMP:  45; 6HR PCP: TRACE;

BLAIR          CLOUDY    44  23  42 E16       30.34F
FREMONT        MOSUNNY   46  22  39 SE16G23   30.33F
MILLARD        MOSUNNY   45  24  45 SE14      30.35F
OFFUTT AFB     MOSUNNY   45  23  42 E13       30.36F
PLATTSMOUTH    MOSUNNY   45  22  40 E13       30.35F
WAHOO          FAIR      45  21  38 SE16      30.33F
$$



USA.gov is the U.S. government's official web portal to all federal, state and local government web resources and services.